Weather History for KRDU - June, 2013

Change the Weather History Date:

Thursday, June 27, 2013

  Actual Average Record
Temperature  
Mean Temperature 78 °F 79 °F  
Max Temperature 89 °F 89 °F 104 °F (1954)
Min Temperature 67 °F 69 °F 53 °F (1985)
Degree Days  
Heating Degree Days 0 0  
Month to date heating degree days 0 0  
Since 1 June heating degree days 0 0  
Since 1 July heating degree days 3320 3243  
Cooling Degree Days 13 14  
Month to date cooling degree days 290 305  
Year to date cooling degree days 468 514  
Since 1 June cooling degree days 290 305  
Growing Degree Days 28 (Base 50)    
Moisture  
Dew Point 70 °F    
Average Humidity 78    
Maximum Humidity 97    
Minimum Humidity 59    
Precipitation  
Precipitation T in 0.12 in 0.99 in (2015)
Month to date precipitation 7.33 3.16  
Year to date precipitation 26.36 20.19  
Sea Level Pressure  
Sea Level Pressure 29.82 in    
Wind  
Wind Speed 10 mph (SW)    
Max Wind Speed 20 mph    
Max Gust Speed 24 mph    
Visibility 10 miles    
Events Rain    
T = Trace of Precipitation, MM = Missing Value Source: NWS Daily Summary

Daily Weather History Graph

Daily Weather History Graph

Search for Another Location

Airport or City:

Trip Planner

Search our weather history database for the weather conditions in past years. The results will help you decide how hot, cold, wet, or windy it might be!

Date:

Astronomy

Jun. 27, 2013 Rise Set
Actual Time 6:00 AM EDT 8:35 PM EDT
Civil Twilight 5:30 AM EDT 9:05 PM EDT
Nautical Twilight 4:53 AM EDT 9:43 PM EDT
Astronomical Twilight 4:11 AM EDT 10:24 PM EDT
Moon 11:42 PM EDT (6/27) 10:50 AM EDT (6/27)
Length of Visible Light 15h 35m
Length of Day
14h 34m
Waning Gibbous, 76% of the Moon is Illuminated
Jun 27
Waning Gibbous
Jun 30
Last Quarter
Jul 8
New
Jul 15
First Quarter
Jul 22
Full

Hourly Weather History & Observations

Time (EDT) Temp. Heat Index Dew Point Humidity Pressure Visibility Wind Dir Wind Speed Gust Speed Precip Events Conditions
12:51 AM 69.1 °F - 66.9 °F 93% 29.92 in 10.0 mi West 9.2 mph - N/A   Mostly Cloudy
1:19 AM 68.0 °F - 66.2 °F 94% 29.93 in 10.0 mi WSW 5.8 mph - N/A   Scattered Clouds
1:51 AM 68.0 °F - 66.0 °F 93% 29.90 in 10.0 mi West 3.5 mph - N/A   Scattered Clouds
2:51 AM 68.0 °F - 66.0 °F 93% 29.90 in 10.0 mi SW 6.9 mph - N/A   Scattered Clouds
3:51 AM 68.0 °F - 64.9 °F 90% 29.88 in 10.0 mi SSW 6.9 mph - N/A   Mostly Cloudy
4:51 AM 69.1 °F - 66.0 °F 90% 29.87 in 10.0 mi SW 5.8 mph - N/A   Mostly Cloudy
5:51 AM 70.0 °F - 66.9 °F 90% 29.86 in 10.0 mi SW 9.2 mph - N/A   Mostly Cloudy
6:32 AM 69.8 °F - 68.0 °F 94% 29.88 in 10.0 mi SW 9.2 mph - N/A   Mostly Cloudy
6:51 AM 70.0 °F - 68.0 °F 93% 29.86 in 10.0 mi SW 11.5 mph - N/A   Mostly Cloudy
7:51 AM 72.0 °F - 69.1 °F 91% 29.86 in 6.0 mi SW 12.7 mph - N/A   Overcast
8:51 AM 73.9 °F - 71.1 °F 91% 29.83 in 7.0 mi South 12.7 mph 18.4 mph N/A   Overcast
9:34 AM 75.2 °F - 71.6 °F 89% 29.87 in 8.0 mi WSW 15.0 mph 21.9 mph N/A   Overcast
9:51 AM 75.9 °F - 72.0 °F 87% 29.85 in 8.0 mi WSW 8.1 mph - N/A   Overcast
10:51 AM 81.0 °F 85.8 °F 73.0 °F 77% 29.83 in 9.0 mi WSW 13.8 mph - N/A   Mostly Cloudy
11:51 AM 84.0 °F 90.2 °F 73.0 °F 69% 29.84 in 10.0 mi SW 12.7 mph - N/A   Mostly Cloudy
12:51 PM 82.9 °F 88.0 °F 72.0 °F 69% 29.83 in 10.0 mi WSW 13.8 mph - N/A   Mostly Cloudy
1:51 PM 87.1 °F 92.8 °F 71.1 °F 59% 29.81 in 10.0 mi SW 10.4 mph - N/A   Mostly Cloudy
2:51 PM 88.0 °F 93.8 °F 71.1 °F 57% 29.79 in 10.0 mi WSW 13.8 mph - N/A   Mostly Cloudy
3:51 PM 87.1 °F 93.6 °F 72.0 °F 61% 29.75 in 10.0 mi WSW 10.4 mph - N/A   Mostly Cloudy
4:51 PM 82.9 °F 89.4 °F 73.9 °F 74% 29.73 in 10.0 mi WNW 4.6 mph - 0.00 in Rain Light Rain
5:51 PM 88.0 °F 95.6 °F 73.0 °F 61% 29.73 in 10.0 mi SW 11.5 mph - 0.00 in   Mostly Cloudy
6:51 PM 84.9 °F 90.7 °F 72.0 °F 65% 29.72 in 10.0 mi SW 9.2 mph - N/A   Mostly Cloudy
7:51 PM 82.9 °F 88.0 °F 72.0 °F 69% 29.74 in 10.0 mi SSW 9.2 mph - N/A   Mostly Cloudy
8:51 PM 80.1 °F 83.6 °F 71.1 °F 74% 29.74 in 10.0 mi SSW 9.2 mph - N/A   Mostly Cloudy
9:51 PM 78.1 °F - 71.1 °F 79% 29.75 in 10.0 mi SW 9.2 mph - N/A   Mostly Cloudy
10:51 PM 75.9 °F - 71.1 °F 85% 29.75 in 10.0 mi WSW 5.8 mph - N/A   Overcast
11:51 PM 75.9 °F - 71.1 °F 85% 29.75 in 10.0 mi SW 9.2 mph - N/A   Mostly Cloudy